FW5669 Weather Reports


time (UTC)temp
C
wind
direction
speed
KPH
gust
KPH
rain 1hr
cm
rain 24hr
cm
rain mn
cm
humidity
%
barometer
mb
20260905134600 8 10 0.0 0.0 0.00 0.03 0.00 90 1016.0
20260905133101 9 6 0.0 0.0 0.00 0.03 0.00 90 1016.1
20260905131600 9 16 0.0 0.0 0.00 0.03 0.00 90 1016.0
20260905130059 9 35 0.0 0.0 0.00 0.03 0.00 89 1015.9
20260905130002 9 35 0.0 0.0 0.00 0.03 0.00 89 1015.9
20260905124501 9 35 0.0 0.0 0.00 0.03 0.00 90 1016.0
20260905123001 9 41 0.0 0.0 0.00 0.03 0.00 91 1016.0
20260905121501 9 25 0.0 0.0 0.00 0.03 0.00 92 1015.9
20260905120001 8 25 0.0 0.0 0.00 0.03 0.00 91 1016.0
20260905114600 8 25 0.0 0.0 0.00 0.05 0.00 91 1016.0
20260905113111 8 25 0.0 0.0 0.00 0.05 0.00 91 1016.0
20260905111600 8 25 0.0 0.0 0.00 0.05 0.00 90 1016.1
20260905110100 9 25 0.0 0.0 0.00 0.05 0.00 90 1016.0
20260905110003 9 25 0.0 0.0 0.00 0.05 0.00 90 1016.0
20260905104501 9 25 0.0 0.0 0.00 0.10 0.00 90 1016.1
20260905103004 9 25 0.0 0.0 0.00 0.10 0.00 89 1016.2
20260905101501 9 25 0.0 0.0 0.00 0.10 0.00 89 1016.2
20260905100002 10 25 0.0 0.0 0.00 0.23 0.00 88 1016.3
20260905094601 10 25 0.0 0.0 0.00 0.23 0.00 87 1016.3
20260905093100 10 25 0.0 0.0 0.00 0.23 0.00 87 1016.3
20260905091604 10 356 0.0 0.0 0.00 0.23 0.00 86 1016.2
20260905090103 10 356 0.0 0.0 0.00 0.23 0.00 85 1016.3
20260905084559 11 356 0.0 0.0 0.00 0.33 0.00 85 1016.3
20260905083059 11 356 0.0 1.6 0.00 0.33 0.00 84 1016.4
20260905081600 11 356 0.0 1.6 0.00 0.33 0.00 84 1016.4
20260905080059 11 356 0.0 3.2 0.00 0.33 0.00 83 1016.4
20260905080006 11 356 0.0 3.2 0.00 0.33 0.00 82 1016.4
20260905074503 11 356 0.0 3.2 0.00 0.38 0.00 82 1016.2
20260905073002 11 39 0.0 4.8 0.00 0.38 0.00 82 1016.1
20260905071503 12 23 0.0 0.0 0.00 0.38 0.00 82 1016.2
20260905070005 12 25 0.0 0.0 0.00 0.43 0.38 82 1016.2
20260905064502 12 54 0.0 1.6 0.00 0.43 0.38 81 1016.1
20260905063002 12 33 0.0 0.0 0.00 0.43 0.38 81 1016.2
20260905061502 12 48 0.0 0.0 0.00 0.43 0.38 80 1016.2
20260905060002 12 48 0.0 3.2 0.00 0.71 0.38 80 1016.3
20260905054502 13 54 0.0 1.6 0.00 0.71 0.38 79 1016.3
20260905053002 13 54 0.0 3.2 0.00 0.71 0.38 77 1016.2
20260905051501 13 52 0.0 0.0 0.00 0.71 0.38 76 1016.3
20260905050003 13 66 0.0 0.0 0.00 0.84 0.38 77 1016.3
20260905044502 13 31 0.0 3.2 0.00 0.84 0.38 78 1016.1
20260905043002 13 64 1.6 3.2 0.00 0.84 0.38 79 1016.1
20260905041502 13 108 0.0 1.6 0.00 0.84 0.38 77 1015.9
20260905040004 14 108 0.0 1.6 0.00 0.86 0.38 76 1015.7
20260905034501 15 108 0.0 1.6 0.00 0.86 0.38 74 1015.6
20260905033002 15 152 0.0 0.0 0.00 0.86 0.38 71 1015.4
20260905031502 16 185 0.0 0.0 0.00 0.86 0.38 69 1015.5
20260905030005 17 185 0.0 0.0 0.00 0.86 0.38 63 1015.2
20260905024502 17 185 0.0 0.0 0.00 0.86 0.38 60 1015.1
20260905023004 19 185 0.0 0.0 0.00 0.86 0.38 56 1014.9
20260905021502 20 185 0.0 1.6 0.00 0.86 0.38 55 1014.9
20260905020003 20 185 0.0 3.2 0.00 0.86 0.38 50 1014.9
20260905014501 21 169 1.6 4.8 0.00 0.86 0.38 45 1014.9
20260905013001 21 211 1.6 3.2 0.00 0.86 0.38 44 1014.7
20260905011501 21 175 0.0 4.8 0.00 0.86 0.38 43 1014.6
20260905010004 21 17 1.6 4.8 0.00 0.86 0.38 43 1014.7
20260905004502 21 153 1.6 4.8 0.00 0.86 0.38 45 1014.6
20260905003001 21 266 1.6 8.0 0.00 0.86 0.38 46 1014.7
20260905001500 22 56 1.6 4.8 0.00 0.86 0.38 45 1014.7
20260905000004 22 130 3.2 6.4 0.00 0.86 0.38 46 1014.8
20260904234501 22 225 1.6 6.4 0.00 0.86 0.38 45 1015.0
20260904233003 22 153 3.2 9.7 0.00 0.86 0.38 47 1015.2
20260904231502 21 235 3.2 8.0 0.00 0.86 0.38 46 1015.2
20260904230003 22 175 3.2 8.0 0.00 0.86 0.38 48 1015.3
20260904224501 22 120 1.6 8.0 0.00 0.86 0.38 46 1015.3
20260904223002 22 156 3.2 11.3 0.00 0.86 0.38 49 1015.5
20260904221502 22 155 1.6 11.3 0.00 0.86 0.38 51 1015.4
20260904220000 21 151 0.0 6.4 0.00 0.86 0.38 53 1015.6
20260904214602 21 170 1.6 9.7 0.00 0.86 0.38 54 1015.6
20260904214501 21 170 1.6 9.7 0.00 0.86 0.38 54 1015.7
20260904213104 21 16 1.6 8.0 0.00 0.86 0.38 56 1015.7
20260904211601 20 98 1.6 6.4 0.00 0.86 0.38 58 1015.6
20260904210100 20 154 3.2 16.1 0.00 0.86 0.38 59 1015.8
20260904210002 20 352 4.8 16.1 0.00 0.86 0.38 62 1015.8
20260904204503 19 32 1.6 6.4 0.00 0.86 0.38 64 1015.7
20260904203001 20 194 1.6 9.7 0.00 0.86 0.38 62 1015.8
20260904201501 18 15 1.6 6.4 0.00 0.86 0.38 68 1015.6
20260904200002 18 158 3.2 8.0 0.00 0.86 0.38 65 1015.7
20260904194502 17 218 0.0 4.8 0.00 0.86 0.38 70 1015.9
20260904193101 17 65 0.0 9.7 0.00 0.86 0.38 71 1016.2
20260904191600 17 21 0.0 4.8 0.00 0.86 0.38 70 1016.4
20260904190003 17 107 3.2 6.4 0.00 0.86 0.38 72 1016.3
20260904184600 17 169 4.8 12.9 0.00 0.86 0.38 72 1016.3
20260904183115 17 191 0.0 6.4 0.00 0.86 0.38 73 1016.3
20260904183000 17 87 1.6 6.4 0.00 0.86 0.38 72 1016.3
20260904181610 17 83 1.6 9.7 0.00 0.86 0.38 77 1016.3
20260904181503 17 88 3.2 9.7 0.00 0.86 0.38 77 1016.3
20260904180101 16 145 1.6 9.7 0.00 0.86 0.38 81 1016.3
20260904180003 16 116 1.6 9.7 0.00 0.86 0.38 82 1016.3
20260904174502 16 21 1.6 12.9 0.00 0.86 0.38 85 1016.3
20260904173002 15 63 0.0 4.8 0.00 0.86 0.38 89 1016.1
20260904171501 14 85 0.0 4.8 0.00 0.86 0.38 89 1016.1
20260904170002 14 175 0.0 3.2 0.00 0.86 0.38 91 1015.9
20260904164604 14 33 0.0 4.8 0.00 0.86 0.38 90 1015.7
20260904163101 13 51 0.0 3.2 0.00 0.86 0.38 92 1015.7
20260904161600 13 304 0.0 4.8 0.00 0.86 0.38 93 1015.6
20260904160004 13 37 1.6 4.8 0.00 0.86 0.38 93 1015.6
20260904154502 13 160 0.0 4.8 0.00 0.86 0.38 94 1015.6
20260904153004 13 131 0.0 3.2 0.00 0.86 0.38 94 1015.4
20260904151502 13 57 0.0 3.2 0.00 0.86 0.38 94 1015.4
20260904150002 13 41 1.6 6.4 0.00 0.86 0.38 94 1015.2
20260904144601 13 79 0.0 1.6 0.03 0.86 0.38 94 1015.0
20260904143130 13 159 0.0 3.2 0.03 0.86 0.38 94 1014.6
20260904143001 13 159 0.0 3.2 0.03 0.86 0.38 94 1014.6
20260904141608 13 174 0.0 1.6 0.03 0.86 0.38 94 1014.4
20260904141501 13 195 0.0 1.6 0.03 0.86 0.38 94 1014.4